TimeEST,TemperatureF,Dew PointF,Humidity,Sea Level PressureIn,VisibilityMPH,Wind Direction,Wind SpeedMPH,Gust SpeedMPH,PrecipitationIn,Events,Conditions,WindDirDegrees,DateUTC
12:15 AM,65.3,61.7,88,30.04,10.0,South,10.4,-,N/A,,Overcast,170,2013-12-23 05:15:00
12:35 AM,65.5,62.1,89,30.04,10.0,South,9.2,-,N/A,,Overcast,180,2013-12-23 05:35:00
12:55 AM,65.3,62.1,89,30.04,10.0,SSW,8.1,-,N/A,Rain,Light Rain,210,2013-12-23 05:55:00
1:15 AM,65.7,62.6,90,30.06,10.0,WSW,9.2,-,N/A,Rain,Rain,240,2013-12-23 06:15:00
1:35 AM,64.8,62.6,93,30.04,3.0,SW,6.9,-,0.04,Rain,Heavy Rain,230,2013-12-23 06:35:00
1:55 AM,64.6,62.8,94,30.06,4.0,SW,12.7,-,0.07,Rain,Rain,220,2013-12-23 06:55:00
2:15 AM,64.4,62.6,94,30.03,10.0,SSW,8.1,-,0.02,Rain,Light Rain,200,2013-12-23 07:15:00
2:35 AM,64.4,62.4,93,30.03,10.0,South,5.8,-,0.03,,Overcast,180,2013-12-23 07:35:00
2:55 AM,64.4,62.2,93,30.06,10.0,SSW,10.4,-,0.04,Rain,Light Rain,210,2013-12-23 07:55:00
3:15 AM,64.0,62.2,94,30.04,10.0,South,6.9,-,0.01,Rain,Light Rain,180,2013-12-23 08:15:00
3:35 AM,63.9,62.1,94,30.04,10.0,South,9.2,-,0.02,Rain,Light Rain,190,2013-12-23 08:35:00
3:55 AM,63.7,61.9,94,30.05,7.0,South,8.1,-,0.03,Rain,Rain,190,2013-12-23 08:55:00
4:15 AM,63.7,61.9,94,30.03,10.0,South,9.2,-,0.01,,Overcast,190,2013-12-23 09:15:00
4:35 AM,63.5,61.7,94,30.03,10.0,South,8.1,-,0.02,Rain,Rain,190,2013-12-23 09:35:00
4:55 AM,63.5,61.7,94,30.04,10.0,South,6.9,-,0.02,,Overcast,190,2013-12-23 09:55:00
5:15 AM,63.5,61.7,94,30.03,7.0,South,9.2,-,N/A,Rain,Rain,190,2013-12-23 10:15:00
5:35 AM,63.3,61.5,94,30.02,10.0,South,10.4,-,0.01,Rain,Light Rain,170,2013-12-23 10:35:00
5:55 AM,63.0,61.2,94,30.02,10.0,South,8.1,-,0.01,Rain,Light Rain,190,2013-12-23 10:55:00
6:15 AM,62.8,61.0,94,30.03,5.0,SSW,10.4,-,0.01,Rain,Rain,210,2013-12-23 11:15:00
6:35 AM,62.8,61.0,94,30.04,7.0,SW,6.9,-,0.01,,Light Drizzle,230,2013-12-23 11:35:00
6:55 AM,63.0,61.2,94,30.04,2.5,WSW,5.8,-,0.01,Rain,Heavy Rain,240,2013-12-23 11:55:00
7:15 AM,63.0,61.3,94,30.04,5.0,SW,5.8,-,0.01,Rain,Light Rain,220,2013-12-23 12:15:00
7:35 AM,63.0,61.3,94,30.03,4.0,South,5.8,-,0.01,Rain,Heavy Rain,190,2013-12-23 12:35:00
7:55 AM,63.5,61.9,94,30.04,4.0,SW,5.8,-,0.01,Rain,Heavy Rain,230,2013-12-23 12:55:00
8:15 AM,63.5,61.7,94,30.04,7.0,South,10.4,-,0.01,Rain,Rain,190,2013-12-23 13:15:00
8:35 AM,63.5,61.7,94,30.05,10.0,SSW,11.5,-,0.01,Rain,Light Rain,200,2013-12-23 13:35:00
8:55 AM,63.5,61.7,94,30.04,10.0,SSW,8.1,-,0.01,Rain,Light Rain,200,2013-12-23 13:55:00
9:15 AM,63.9,61.9,93,30.04,10.0,SSW,9.2,-,0.01,,Light Drizzle,200,2013-12-23 14:15:00
9:35 AM,64.4,62.1,92,30.05,10.0,SSW,11.5,-,0.01,Rain,Light Rain,200,2013-12-23 14:35:00
9:55 AM,64.4,62.2,93,30.05,10.0,SSW,9.2,-,0.01,Rain,Light Rain,200,2013-12-23 14:55:00
10:15 AM,64.4,62.4,93,30.04,10.0,SSW,9.2,-,0.01,Rain,Light Rain,200,2013-12-23 15:15:00
10:35 AM,64.6,62.4,93,30.05,10.0,SSW,12.7,16.1,0.01,,Overcast,210,2013-12-23 15:35:00
10:55 AM,64.6,62.2,92,30.05,10.0,SW,13.8,18.4,0.01,,Overcast,220,2013-12-23 15:55:00
11:15 AM,64.6,62.2,92,30.05,10.0,SW,12.7,-,N/A,Rain,Light Rain,220,2013-12-23 16:15:00
11:35 AM,64.6,62.4,93,30.04,7.0,SSW,10.4,16.1,N/A,Rain,Light Rain,210,2013-12-23 16:35:00
11:55 AM,64.4,62.2,93,30.03,10.0,SSW,10.4,-,N/A,Rain,Light Rain,210,2013-12-23 16:55:00
12:15 PM,64.4,62.2,93,30.03,10.0,SSW,9.2,-,N/A,Rain,Light Rain,200,2013-12-23 17:15:00
12:35 PM,64.6,62.6,93,30.01,10.0,SSW,10.4,-,0.01,,Overcast,210,2013-12-23 17:35:00
12:55 PM,64.6,62.6,93,30.02,10.0,SSW,10.4,17.3,0.01,Rain,Light Rain,210,2013-12-23 17:55:00
1:15 PM,64.6,62.6,93,30.01,10.0,SW,11.5,-,N/A,Rain,Rain,220,2013-12-23 18:15:00
1:35 PM,64.6,62.6,93,30.01,10.0,SW,10.4,-,N/A,Rain,Light Rain,220,2013-12-23 18:35:00
1:55 PM,64.6,62.6,93,30.01,10.0,SW,8.1,-,N/A,,Overcast,220,2013-12-23 18:55:00
2:15 PM,60.4,57.4,90,30.03,7.0,NW,11.5,18.4,N/A,Rain,Rain,310,2013-12-23 19:15:00
2:35 PM,57.4,55.2,92,30.02,7.0,NW,6.9,-,N/A,Rain,Light Rain,310,2013-12-23 19:35:00
2:55 PM,57.4,54.9,91,30.03,10.0,NW,4.6,-,N/A,Rain,Light Rain,320,2013-12-23 19:55:00
3:15 PM,57.2,54.7,91,30.04,10.0,WNW,6.9,-,N/A,Rain,Rain,300,2013-12-23 20:15:00
3:35 PM,57.0,54.7,92,30.05,3.0,WNW,5.8,-,N/A,,Drizzle,300,2013-12-23 20:35:00
3:55 PM,56.7,54.7,93,30.06,5.0,NW,5.8,-,0.01,,Light Drizzle,310,2013-12-23 20:55:00
4:15 PM,56.8,54.5,92,30.05,10.0,NNW,6.9,-,N/A,,Light Drizzle,330,2013-12-23 21:15:00
4:35 PM,56.5,54.0,91,30.06,10.0,NNW,9.2,-,N/A,,Overcast,330,2013-12-23 21:35:00
4:55 PM,55.2,50.9,85,30.08,10.0,NW,9.2,18.4,N/A,,Overcast,320,2013-12-23 21:55:00
5:15 PM,53.2,49.6,88,30.09,5.0,NW,9.2,-,N/A,,Drizzle,320,2013-12-23 22:15:00
5:35 PM,52.2,47.8,85,30.09,10.0,NW,8.1,16.1,N/A,,Overcast,310,2013-12-23 22:35:00
5:55 PM,51.8,47.3,85,30.09,10.0,NW,8.1,-,N/A,,Overcast,320,2013-12-23 22:55:00
6:15 PM,51.1,46.2,83,30.11,10.0,NW,8.1,17.3,N/A,Rain,Light Rain,310,2013-12-23 23:15:00
6:35 PM,50.4,45.1,82,30.11,10.0,NW,6.9,-,N/A,,Overcast,320,2013-12-23 23:35:00
6:55 PM,50.4,44.2,80,30.11,10.0,NW,5.8,-,N/A,Rain,Rain,310,2013-12-23 23:55:00
7:15 PM,50.0,44.2,81,30.11,10.0,NW,4.6,-,N/A,Rain,Light Rain,310,2013-12-24 00:15:00
7:35 PM,50.0,44.1,80,30.12,10.0,NW,3.5,-,N/A,,Overcast,310,2013-12-24 00:35:00
7:55 PM,50.2,43.7,78,30.12,10.0,NW,5.8,-,N/A,,Overcast,320,2013-12-24 00:55:00
8:15 PM,49.6,43.7,80,30.13,10.0,WNW,6.9,-,N/A,Rain,Light Rain,300,2013-12-24 01:15:00
8:35 PM,49.3,41.9,76,30.12,10.0,NW,4.6,-,N/A,Rain,Light Rain,310,2013-12-24 01:35:00
8:55 PM,49.3,41.0,73,30.13,10.0,NW,4.6,-,N/A,,Overcast,320,2013-12-24 01:55:00
9:15 PM,49.1,41.2,74,30.13,10.0,NW,5.8,-,N/A,,Overcast,310,2013-12-24 02:15:00
9:35 PM,48.7,40.5,73,30.13,10.0,NNW,5.8,-,N/A,,Overcast,330,2013-12-24 02:35:00
9:55 PM,48.4,39.9,73,30.14,10.0,NNW,5.8,-,N/A,,Overcast,330,2013-12-24 02:55:00
10:15 PM,48.2,39.6,72,30.14,10.0,NNW,6.9,-,N/A,,Overcast,340,2013-12-24 03:15:00
10:35 PM,47.8,38.8,71,30.15,10.0,NNW,8.1,-,N/A,,Overcast,340,2013-12-24 03:35:00
10:55 PM,47.3,37.9,70,30.15,10.0,NNW,8.1,-,N/A,,Overcast,340,2013-12-24 03:55:00
11:15 PM,46.8,36.9,68,30.15,10.0,NNW,10.4,-,N/A,,Overcast,330,2013-12-24 04:15:00
11:35 PM,46.4,36.3,68,30.15,10.0,NW,9.2,17.3,N/A,,Overcast,320,2013-12-24 04:35:00
11:55 PM,46.0,36.0,68,30.16,10.0,NNW,8.1,-,N/A,,Overcast,330,2013-12-24 04:55:00